[[{"header":{"parameterUnit":"m.s-1","parameterCategory":1,"la1":30.2991,"la2":30.254,"lo1":-89.0895,"lo2":-89.0444,"dy":0.0017,"dx":0.0017,"nx":28,"ny":28,"refTime":"2025-02-27T09:00:00:Z","depth":0,"parameterNumber":2,"parameterNumberName":"U-component_of_WINDS"},"data":[0,0,0,0,0,0,0,0,0,0,0,0,0,0,0,0,0,0,0,0,0,0,0,0,0,0,0,0,0,0,0,0,0,0,0,0,0,0,0,0,0,0,0,0,0,0,0,0,0,0,0,0,0,0,0,0,0,0,-0.5168,-0.5168,0,-0.5173,-0.5173,-0.5173,-0.5124,-0.5123,-0.5122,-0.5121,-0.5129,-0.513,-0.5131,0,0,0,0,0,0,0,0,0,0,0,0,0,-0.5118,-0.5119,-0.5168,-0.5168,-0.5168,-0.5173,-0.5173,-0.5173,-0.5125,-0.5123,-0.5121,-0.512,-0.5128,-0.513,-0.5132,0,0,0,0,0,0,0,0,0,0,0,0,0,-0.5133,-0.512,-0.5168,-0.5144,-0.5142,-0.5173,-0.5173,-0.5173,-0.5125,-0.5123,-0.5121,-0.5119,-0.5127,-0.513,-0.5132,-0.5186,0,0,-0.5139,-0.5139,0,0,0,0,0,0,0,0,-0.5133,-0.5135,-0.5148,-0.5146,-0.5144,-0.5146,-0.5158,-0.5178,-0.5126,-0.5132,-0.512,-0.5118,-0.5136,-0.5137,-0.5143,-0.5186,-0.5187,-0.5139,-0.514,-0.5141,-0.5142,0,0,0,0,0,0,0,-0.5132,-0.5135,-0.517,-0.5148,-0.5146,-0.5134,-0.5134,-0.5162,-0.5145,-0.5131,-0.5127,-0.5129,-0.5135,-0.5141,-0.5143,-0.5187,-0.5139,-0.5141,-0.5142,-0.5143,-0.5275,-0.5277,0,0,0,0,0,0,-0.5133,-0.5134,-0.517,-0.517,-0.5133,-0.5137,-0.5137,-0.5147,-0.5145,-0.5142,-0.513,-0.5126,-0.5138,-0.514,-0.5143,-0.5207,-0.5141,-0.5143,-0.5144,-0.5273,-0.5275,-0.5278,0,0,0,0,0,0,-0.5132,-0.5137,-0.517,-0.5151,-0.5154,-0.514,-0.5152,-0.5149,-0.5155,-0.5144,-0.5141,-0.514,-0.5137,-0.514,-0.5175,-0.5206,-0.5144,-0.5146,-0.527,-0.5274,-0.5277,-0.5334,0,0,0,0,0,0,-0.5131,-0.5137,-0.5157,-0.5152,-0.5156,-0.5202,-0.5154,-0.515,-0.5158,-0.5153,-0.5152,-0.515,-0.5135,-0.5172,-0.5178,-0.5208,-0.5148,-0.5267,-0.5272,-0.5276,-0.533,-0.5339,-0.5347,0,0,0,0,0,-0.513,-0.5174,-0.5158,-0.5163,-0.518,-0.5204,-0.5206,-0.5187,-0.5161,-0.5182,-0.5175,-0.515,-0.5202,-0.5176,-0.5182,-0.5214,-0.5265,-0.527,-0.5275,-0.5326,-0.5337,-0.5347,0,0,0,0,0,0,-0.5184,-0.5173,-0.5156,-0.5199,-0.5203,-0.5195,-0.5221,-0.52,-0.5211,-0.5206,-0.5183,-0.5183,-0.5223,-0.5221,-0.5194,-0.5266,-0.5229,-0.5235,-0.5266,-0.5277,-0.5285,-0.5286,-0.515,0,0,0,0,0,-0.5201,-0.522,-0.5209,-0.5249,-0.5251,-0.5236,-0.5245,-0.523,-0.5233,-0.5235,-0.523,-0.5235,-0.5252,-0.5264,-0.5279,-0.5329,-0.5328,-0.5353,-0.5362,-0.5369,-0.5375,-0.5402,-0.5413,-0.5294,-0.5294,-0.5294,0,0,-0.5237,-0.5233,-0.5246,-0.526,-0.5261,-0.5282,-0.5237,-0.5262,-0.5277,-0.5239,-0.5272,-0.5269,-0.5272,-0.5315,-0.5334,-0.5315,-0.5408,-0.5375,-0.5381,-0.5384,-0.5408,-0.5419,-0.5429,-0.5297,-0.5297,-0.5296,0,0,-0.5312,-0.5311,-0.5344,-0.5345,-0.5347,-0.5336,-0.5344,-0.5339,-0.5336,-0.5368,-0.534,-0.5358,-0.5388,-0.5392,-0.5397,-0.5473,-0.5452,-0.5479,-0.5526,-0.5552,-0.5561,-0.5569,-0.5598,-0.5608,-0.5485,-0.5485,-0.5485,0,-0.5357,-0.5387,-0.5364,-0.539,-0.5397,-0.5361,-0.5395,-0.5397,-0.5404,-0.541,-0.5389,-0.5425,-0.5425,-0.5468,-0.5487,-0.5492,-0.5501,-0.548,-0.5561,-0.557,-0.5577,-0.5603,-0.5614,-0.5488,-0.5488,-0.5487,-0.5487,0,-0.5442,-0.5463,-0.5489,-0.5496,-0.5505,-0.5535,-0.5517,-0.553,-0.5513,-0.5505,-0.5539,-0.5537,-0.5551,-0.556,-0.5545,-0.5601,-0.559,-0.5565,-0.5528,-0.5592,-0.5617,-0.5627,-0.5493,-0.5492,-0.5491,-0.549,0,0,-0.5554,-0.5546,-0.5556,-0.5559,-0.5557,-0.5573,-0.5601,-0.5614,-0.5626,-0.5631,-0.5655,-0.568,-0.5657,-0.5664,-0.5648,-0.5671,-0.5732,-0.5644,-0.5643,-0.5661,-0.5795,-0.5815,-0.5827,-0.5717,-0.5719,-0.572,-0.5795,0,-0.5628,-0.5675,-0.5655,-0.5704,-0.5724,-0.569,-0.5714,-0.5716,-0.5709,-0.5725,-0.5716,-0.5735,-0.5703,-0.5707,-0.5727,-0.572,-0.5759,-0.5714,-0.574,-0.5741,-0.5742,-0.584,-0.5861,-0.5932,-0.5805,-0.5806,-0.5807,0,-0.5722,-0.5731,-0.5782,-0.5776,-0.5784,-0.5806,-0.5816,-0.5831,-0.5833,-0.5826,-0.5832,-0.5812,-0.5839,-0.5801,-0.5839,-0.5809,-0.5818,-0.5816,-0.5818,-0.5821,-0.5779,-0.5847,-0.5954,-0.5965,-0.5822,-0.5821,-0.582,0,-0.58,-0.5824,-0.5858,-0.5861,-0.5855,-0.5872,-0.587,-0.5869,-0.5878,-0.5887,-0.5893,-0.5905,-0.5912,-0.5922,-0.5905,-0.5879,-0.5946,-0.5906,-0.5942,-0.5943,-0.596,-0.5959,-0.6071,-0.5963,-0.5963,-0.5962,-0.5962,0,-0.5887,-0.592,-0.5893,-0.5914,-0.595,-0.5926,-0.5962,-0.5957,-0.5956,-0.5976,-0.5947,-0.5966,-0.5942,-0.5959,-0.5946,-0.598,-0.5984,-0.5979,-0.5976,-0.5983,-0.5984,-0.599,-0.5985,-0.5965,-0.5965,-0.5964,-0.5964,0,-0.5981,-0.5964,-0.5999,-0.599,-0.5988,-0.6015,-0.6008,-0.6027,-0.6017,-0.6042,-0.6047,-0.6031,-0.605,-0.6034,-0.6052,-0.6043,-0.6089,-0.6077,-0.6088,-0.6086,-0.6123,-0.612,-0.6244,-0.626,-0.614,-0.6141,-0.6142,0,-0.6038,-0.6063,-0.6056,-0.6067,-0.6067,-0.6084,-0.6093,-0.607,-0.608,-0.6083,-0.6102,-0.6118,-0.613,-0.6161,-0.6152,-0.6165,-0.6155,-0.6197,-0.6157,-0.6163,-0.6157,-0.6157,-0.6159,-0.6206,-0.6208,-0.6209,-0.621,0,-0.6142,-0.6132,-0.6145,-0.6155,-0.6166,-0.6173,-0.6178,-0.6189,-0.6165,-0.6178,-0.6196,-0.6205,-0.6223,-0.6239,-0.6249,-0.6248,-0.6226,-0.6222,-0.6231,-0.624,-0.6246,-0.6244,-0.6112,-0.622,-0.6219,-0.6218,-0.6218,-0.6217,-0.6221,-0.6241,-0.6239,-0.6254,-0.6255,-0.626,-0.6278,-0.6269,-0.6284,-0.6296,-0.6281,-0.6304,-0.6304,-0.6315,-0.6317,-0.6334,-0.6317,-0.633,-0.6334,-0.6338,-0.6344,-0.6241,-0.6336,-0.6336,-0.6335,-0.6335,-0.6335,0,-0.6324,-0.632,-0.6335,-0.6342,-0.6354,-0.633,-0.6334,-0.6346,-0.6366,-0.6368,-0.6379,-0.64,-0.6415,-0.6407,-0.642,-0.6436,-0.6426,-0.644,-0.644,-0.644,-0.6358,-0.6349,-0.6448,-0.6448,-0.6448,-0.6448,-0.6448,-0.6448,-0.6379,-0.6412,-0.6402,-0.6435,-0.6431,-0.6453,-0.6457,-0.6462,-0.6463,-0.6487,-0.6499,-0.6493,-0.6491,-0.6504,-0.6517,-0.6514,-0.6521,-0.6539,-0.6533,-0.6457,-0.6446,-0.6435,-0.6427,-0.6541,-0.6541,-0.6614,-0.6614,-0.6615]},{"header":{"parameterUnit":"m.s-1","parameterCategory":1,"la1":30.2991,"la2":30.254,"lo1":-89.0895,"lo2":-89.0444,"dy":0.0017,"dx":0.0017,"nx":28,"ny":28,"refTime":"2025-02-27T09:00:00:Z","depth":0,"parameterNumber":3,"parameterNumberName":"V-component_of_WINDS"},"data":[0,0,0,0,0,0,0,0,0,0,0,0,0,0,0,0,0,0,0,0,0,0,0,0,0,0,0,0,0,0,0,0,0,0,0,0,0,0,0,0,0,0,0,0,0,0,0,0,0,0,0,0,0,0,0,0,0,0,-3.2502,-3.2502,0,-3.2523,-3.2523,-3.2524,-3.2456,-3.2454,-3.2452,-3.245,-3.2469,-3.2472,-3.2474,0,0,0,0,0,0,0,0,0,0,0,0,0,-3.2401,-3.2403,-3.2502,-3.2502,-3.2503,-3.2523,-3.2523,-3.2524,-3.2456,-3.2454,-3.2451,-3.2449,-3.2469,-3.2471,-3.2474,0,0,0,0,0,0,0,0,0,0,0,0,0,-3.2436,-3.2404,-3.2502,-3.2472,-3.2469,-3.2523,-3.2523,-3.2524,-3.2457,-3.2454,-3.2451,-3.2448,-3.2468,-3.2471,-3.2475,-3.2558,0,0,-3.2486,-3.2487,0,0,0,0,0,0,0,0,-3.2434,-3.244,-3.2476,-3.2474,-3.2471,-3.2484,-3.2495,-3.2535,-3.2458,-3.2461,-3.245,-3.2446,-3.2477,-3.2479,-3.249,-3.2559,-3.256,-3.2486,-3.2488,-3.249,-3.2491,0,0,0,0,0,0,0,-3.2432,-3.2438,-3.251,-3.2476,-3.2473,-3.2456,-3.2458,-3.2502,-3.2486,-3.2461,-3.2456,-3.246,-3.2475,-3.2486,-3.249,-3.256,-3.2486,-3.2489,-3.2491,-3.2493,-3.2699,-3.2702,0,0,0,0,0,0,-3.2434,-3.2437,-3.2509,-3.2511,-3.2445,-3.246,-3.2462,-3.2483,-3.2485,-3.2483,-3.2462,-3.2456,-3.2482,-3.2486,-3.249,-3.2588,-3.249,-3.2493,-3.2495,-3.2696,-3.27,-3.2703,0,0,0,0,0,0,-3.2432,-3.2441,-3.2509,-3.2473,-3.248,-3.2465,-3.2489,-3.2485,-3.2497,-3.2486,-3.2483,-3.2478,-3.248,-3.2485,-3.2542,-3.2588,-3.2495,-3.2498,-3.2692,-3.2697,-3.2702,-3.2785,0,0,0,0,0,0,-3.2429,-3.244,-3.2473,-3.2474,-3.2482,-3.2561,-3.2492,-3.2487,-3.2503,-3.2496,-3.25,-3.2497,-3.2478,-3.2537,-3.2546,-3.2591,-3.2501,-3.2688,-3.2694,-3.27,-3.2778,-3.2792,-3.2804,0,0,0,0,0,-3.2426,-3.2495,-3.2475,-3.2484,-3.2522,-3.2564,-3.2568,-3.2545,-3.2507,-3.2539,-3.2532,-3.2497,-3.2582,-3.2543,-3.2552,-3.26,-3.2685,-3.2692,-3.27,-3.2772,-3.2789,-3.2804,0,0,0,0,0,0,-3.2498,-3.2494,-3.2472,-3.2543,-3.2555,-3.2552,-3.2592,-3.2564,-3.2586,-3.2578,-3.2547,-3.2548,-3.2611,-3.2611,-3.2568,-3.2681,-3.2627,-3.2636,-3.2679,-3.2695,-3.2708,-3.2706,-3.2504,0,0,0,0,0,-3.2523,-3.2558,-3.2552,-3.2616,-3.2623,-3.2607,-3.2624,-3.2605,-3.2615,-3.2619,-3.2616,-3.2627,-3.2656,-3.2675,-3.2701,-3.2778,-3.2777,-3.2815,-3.2828,-3.2839,-3.2847,-3.2888,-3.2905,-3.2728,-3.2728,-3.2728,0,0,-3.2573,-3.2575,-3.2599,-3.263,-3.2637,-3.2673,-3.2611,-3.2652,-3.2678,-3.2625,-3.2679,-3.2677,-3.2687,-3.2754,-3.2784,-3.2756,-3.2896,-3.2848,-3.2857,-3.286,-3.2897,-3.2914,-3.2929,-3.2733,-3.2732,-3.2731,0,0,-3.2684,-3.269,-3.2743,-3.2751,-3.2762,-3.2751,-3.2764,-3.2766,-3.2764,-3.2817,-3.2778,-3.2809,-3.2859,-3.2868,-3.2878,-3.2993,-3.2962,-3.3002,-3.3071,-3.3111,-3.3125,-3.3137,-3.3178,-3.3193,-3.3011,-3.3011,-3.3011,0,-3.2745,-3.2799,-3.2774,-3.2818,-3.2833,-3.2787,-3.2841,-3.285,-3.2868,-3.2879,-3.2848,-3.2911,-3.2914,-3.2983,-3.3011,-3.3021,-3.3035,-3.3002,-3.3125,-3.3137,-3.3148,-3.3187,-3.3202,-3.3016,-3.3016,-3.3015,-3.3015,0,-3.2874,-3.2912,-3.2954,-3.2975,-3.2994,-3.3043,-3.3024,-3.3046,-3.3026,-3.3018,-3.3073,-3.3076,-3.3101,-3.3116,-3.3096,-3.3182,-3.3165,-3.313,-3.3075,-3.317,-3.3206,-3.3221,-3.3023,-3.3021,-3.302,-3.3019,0,0,-3.3031,-3.3037,-3.3053,-3.3062,-3.3071,-3.3099,-3.3146,-3.3172,-3.3192,-3.3206,-3.3244,-3.3288,-3.3256,-3.3268,-3.3249,-3.3284,-3.3375,-3.3244,-3.3244,-3.3269,-3.347,-3.3496,-3.3514,-3.3354,-3.3357,-3.3359,-3.3469,0,-3.314,-3.3221,-3.32,-3.328,-3.3314,-3.3272,-3.3312,-3.3322,-3.3316,-3.3344,-3.3336,-3.3368,-3.3323,-3.333,-3.3363,-3.3357,-3.3415,-3.3349,-3.3388,-3.339,-3.3388,-3.3532,-3.356,-3.3664,-3.3483,-3.3485,-3.3487,0,-3.3278,-3.3299,-3.3383,-3.3387,-3.34,-3.3437,-3.346,-3.3487,-3.3497,-3.349,-3.3505,-3.3478,-3.3523,-3.3468,-3.353,-3.3485,-3.35,-3.3499,-3.3503,-3.3506,-3.3444,-3.3539,-3.3697,-3.3713,-3.3509,-3.3507,-3.3505,0,-3.3384,-3.3433,-3.349,-3.3499,-3.3504,-3.3531,-3.3535,-3.3541,-3.3559,-3.3578,-3.3588,-3.3612,-3.3626,-3.3645,-3.3625,-3.3587,-3.369,-3.3633,-3.3685,-3.3686,-3.3709,-3.3707,-3.3871,-3.3718,-3.3718,-3.3718,-3.3718,0,-3.3509,-3.3562,-3.3538,-3.3573,-3.3631,-3.3606,-3.3663,-3.3662,-3.3668,-3.3702,-3.3666,-3.3698,-3.367,-3.3699,-3.3684,-3.3738,-3.3744,-3.3739,-3.3734,-3.3742,-3.3743,-3.3752,-3.3744,-3.3722,-3.3721,-3.372,-3.372,0,-3.3637,-3.3623,-3.3682,-3.3683,-3.3684,-3.3727,-3.3727,-3.3759,-3.3751,-3.3793,-3.3802,-3.3788,-3.3821,-3.3803,-3.3837,-3.3827,-3.3896,-3.3881,-3.3893,-3.3889,-3.3943,-3.3938,-3.4118,-3.414,-3.3973,-3.3975,-3.3976,0,-3.3717,-3.3757,-3.3763,-3.3783,-3.3789,-3.3822,-3.384,-3.3816,-3.3836,-3.385,-3.388,-3.391,-3.3933,-3.3987,-3.3979,-3.4005,-3.399,-3.4052,-3.3994,-3.4001,-3.3991,-3.399,-3.3993,-3.4063,-3.4065,-3.4067,-3.4068,0,-3.3861,-3.3853,-3.388,-3.3905,-3.3927,-3.3946,-3.3961,-3.3979,-3.3956,-3.398,-3.4014,-3.4031,-3.4066,-3.4096,-3.4118,-3.412,-3.4091,-3.4086,-3.41,-3.4108,-3.4114,-3.4112,-3.3925,-3.4082,-3.4081,-3.408,-3.4079,-3.4079,-3.3968,-3.4002,-3.4011,-3.4043,-3.4052,-3.4067,-3.4097,-3.4093,-3.4121,-3.4148,-3.4132,-3.4171,-3.418,-3.4206,-3.4213,-3.4243,-3.4218,-3.4237,-3.4242,-3.4248,-3.4255,-3.4109,-3.4246,-3.4246,-3.4246,-3.4245,-3.4245,0,-3.411,-3.4114,-3.4144,-3.4167,-3.4192,-3.4162,-3.4178,-3.42,-3.4236,-3.4247,-3.427,-3.4308,-3.4337,-3.4333,-3.4359,-3.4384,-3.4371,-3.4391,-3.4389,-3.439,-3.4275,-3.4261,-3.4401,-3.4401,-3.4401,-3.4401,-3.4401,-3.4401,-3.4187,-3.4243,-3.4235,-3.4295,-3.4298,-3.4337,-3.4349,-3.4363,-3.4371,-3.4416,-3.444,-3.4437,-3.4442,-3.4468,-3.4493,-3.4491,-3.4502,-3.4528,-3.4521,-3.4414,-3.4398,-3.4384,-3.437,-3.4531,-3.4531,-3.4633,-3.4634,-3.4635]}]]